Flag for Portugal Weather past 2 weeks in Setúbal, Portugal

Now
77 °F

Passing clouds.


Feels Like: 78 °F
Forecast: 59 / 84 °F
Wind: 9 mph from Northwest

Location: Lisbon Portela Airport

Current Time: Jun 2, 2015 at 2:49:56 PM

Latest Report: Jun 2, 2015 at 2:30 PM


Visibility: N/A

Pressure: 30.09 "Hg

Humidity: 44%

Dew point: 54 °F

Location of SetúbalLocation

Historic Weather in Setúbal — Graph

°F

Setúbal temperature yesterday

Maximum temperature yesterday: 73 °F (at 2:30 PM)
Minimum temperature yesterday: 59 °F (at 10:00 PM)
Average temperature yesterday: 65 °F

Past Weeks' High & Low Weather Summary

 TemperatureHumidityPressure
High91 °F (May 27, 4:30 PM)100% (May 29, 6:30 AM)30.24 "Hg (May 29, 6:30 AM)
Low54 °F (May 20, 3:30 AM)13% (May 27, 3:30 PM)29.89 "Hg (May 18, 4:00 PM)
Average68 °F53%30.04 "Hg
* Reported May 18 1:00 PM — Jun 2 1:30 PM, Setúbal, Weather by CustomWeather, © 2015

Note: Actual official high and low records may vary slightly from our data, if they occured in-between our weather recording intervals... More about our weather records

Advertising

Setúbal weather history for previous 24 hours

 ConditionsComfort  
Time TempWeatherWind HumidityBarometerVisibility
1:30 PM
Tue, Jun 2
75 °FPassing clouds.8 mph44%30.09 "HgN/A
1:00 PM73 °FPassing clouds.6 mph47%30.09 "HgN/A
12:30 PM72 °FPassing clouds.10 mph50%30.09 "HgN/A
12:00 PM72 °FPassing clouds.8 mph47%30.09 "HgN/A
11:30 AM70 °FPassing clouds.7 mph50%30.09 "HgN/A
11:00 AM68 °FPassing clouds.8 mph53%30.09 "HgN/A
10:30 AM66 °FPassing clouds.8 mph56%30.09 "HgN/A
10:00 AM64 °FPassing clouds.8 mph60%30.09 "HgN/A
9:30 AM64 °FPassing clouds.9 mph60%30.09 "HgN/A
9:00 AM61 °FPassing clouds.12 mph68%30.09 "HgN/A
8:30 AM59 °FPassing clouds.13 mph72%30.09 "HgN/A
8:00 AM57 °FPassing clouds.13 mph77%30.09 "HgN/A
7:30 AM57 °FPassing clouds.12 mph77%30.09 "HgN/A
7:00 AM55 °FPassing clouds.9 mph82%30.09 "HgN/A
6:30 AM55 °FPassing clouds.8 mph82%30.09 "HgN/A
6:00 AM55 °FPassing clouds.8 mph82%30.09 "HgN/A
5:30 AM55 °FPassing clouds.9 mph82%30.07 "HgN/A
4:30 AM55 °FClear.14 mph82%30.07 "Hg10 mi
4:00 AM55 °FPassing clouds.13 mph82%30.07 "HgN/A
3:30 AM57 °FPassing clouds.15 mph82%30.07 "HgN/A
3:00 AM57 °FPassing clouds.17 mph82%30.09 "HgN/A
2:30 AM57 °FPassing clouds.13 mph82%30.09 "HgN/A
2:00 AM57 °FPassing clouds.13 mph82%30.09 "HgN/A
1:30 AM57 °FClear.13 mph82%30.09 "Hg10 mi
1:00 AM57 °FPassing clouds.13 mph77%30.09 "HgN/A
12:30 AM57 °FClear.14 mph82%30.12 "Hg10 mi
12:00 AM57 °FClear.13 mph82%30.12 "Hg10 mi
11:30 PM
Mon, Jun 1
59 °FClear.10 mph72%30.12 "Hg10 mi
11:00 PM59 °FClear.13 mph72%30.12 "Hg10 mi
10:30 PM59 °FClear.14 mph68%30.12 "Hg10 mi
10:00 PM59 °FPassing clouds.12 mph68%30.09 "HgN/A
9:30 PM61 °FPassing clouds.12 mph63%30.09 "HgN/A
9:00 PM61 °FSunny.15 mph63%30.09 "Hg10 mi
8:30 PM64 °FPassing clouds.14 mph56%30.09 "HgN/A
8:00 PM66 °FPassing clouds.12 mph52%30.09 "HgN/A
7:30 PM68 °FPassing clouds.13 mph49%30.07 "HgN/A
7:00 PM68 °FPassing clouds.16 mph49%30.07 "HgN/A
6:30 PM68 °FPassing clouds.16 mph53%30.07 "HgN/A
6:00 PM70 °FPassing clouds.17 mph50%30.07 "HgN/A
5:30 PM70 °FSunny.21 mph50%30.07 "Hg10 mi
5:00 PM72 °FPassing clouds.18 mph50%30.07 "HgN/A
4:30 PM72 °FPassing clouds.15 mph50%30.07 "HgN/A
4:00 PM73 °FPassing clouds.16 mph47%30.07 "HgN/A
3:30 PM73 °FPassing clouds.15 mph53%30.07 "HgN/A
3:00 PM73 °FPassing clouds.16 mph53%30.07 "HgN/A
2:30 PM73 °FPassing clouds.16 mph53%30.09 "HgN/A
2:00 PM72 °FPassing clouds.16 mph57%30.09 "HgN/A
Weather by CustomWeather, © 2015

See weather overviewHow to use our weather pages